User: anonymous   Login
Location: Caltech
(34.1382°N, 118.1253°W)
Time: 02:17:54
(UTC-07:00)
Language:

Iridium 70 - Orbit

View from above orbital plane
View from above orbital plane
View from above satellite
View from above satellite

Ground track
Ground track

The orbit data is extracted from the following two-line orbital elements,

1 25342U 98032A   18168.63657085  .00000051  00000-0  10112-4 0  9997
2 25342  86.4222  71.5503 0002328  91.1855 268.9610 14.38612095 51475
Epoch (UTC): 17 June 2018 15:16:39
Eccentricity: 0.0002328
inclination: 86.4222°
perigee height: 761 km
apogee height: 765 km
right ascension of ascending node: 71.5503°
argument of perigee: 91.1855°
revolutions per day: 14.38612095
mean anomaly at epoch: 268.9610°
orbit number at epoch: 5147

The dashed part of the orbit path shows where the satellite is in the earth's shadow,  

DLR